Regional Weather Roundup
Issued by NWS

Home | Current Version | Previous Version | Text Only | Print | Product List | Glossary Off
Versions: 1 2 3 4 5 6 7 8 9 10 11 12 13 14 15 16 17 18 19 20 21 22 23 24 25 26 27 28 29 30 31 32 33 34 35 36 37 38 39 40 41 42 43 44 45 46 47 48 49 50

000
ASUS43 KFSD 012110
RWRSD

WEATHER ROUNDUP FOR SOUTH DAKOTA
NATIONAL WEATHER SERVICE SIOUX FALLS SD
400 PM CDT SAT AUG 01 2015

NOTE: "FAIR" INDICATES FEW OR NO CLOUDS BELOW 12,000 FEET WITH NO
SIGNIFICANT WEATHER AND/OR OBSTRUCTIONS TO VISIBILITY.


SDZ001>005-009-010-012>017-012200-
NORTHWEST AND NORTH CENTRAL SOUTH DAKOTA

CITY           SKY/WX    TMP DP  RH WIND       PRES   REMARKS
BUFFALO          N/A     95  31  10 NW15G25   29.87F
FAITH            N/A     96  33  11 NW16G29   29.91S
MOBRIDGE       SUNNY     95  53  24 NW14      29.80S
$$

SDZ012>016-024>037-041>051-057-063-072>074-012200-
SOUTHWEST AND SOUTH CENTRAL SOUTH DAKOTA

CITY           SKY/WX    TMP DP  RH WIND       PRES   REMARKS
RAPID CTY ARPT SUNNY     91  57  31 VRB6      29.97F
PIERRE         SUNNY     91  61  36 SW25G32   29.85F
CUSTER         MOSUNNY   79  53  40 E10G17    30.15F
ELLSWORTH AFB  SUNNY     93  40  15 N10G18    29.96F
PHILIP         SUNNY     90  65  43 SW17G23   29.92F
PINE RIDGE     SUNNY     87  63  44 SE16G23   30.01F
WINNER         FAIR      90  58  33 SW16G30   29.91F
$$

SDZ004>011-016>023-039-040-012200-
NORTHEAST SOUTH DAKOTA

CITY           SKY/WX    TMP DP  RH WIND       PRES   REMARKS
ABERDEEN       SUNNY     90  64  42 SW18G25   29.79F
WATERTOWN      SUNNY     86  66  51 SW16      29.86F
BROOKINGS      MOSUNNY   84  63  48 SW15G22   29.91F
SISSETON         N/A     89  65  44 W14G20    29.79F
$$

SDZ017-020-022-023-036>040-048>070-012200-
SOUTHEAST SOUTH DAKOTA

CITY           SKY/WX    TMP DP  RH WIND       PRES   REMARKS
SIOUX FALLS    MOSUNNY   84  62  47 SW10      29.91F
HURON          SUNNY     87  63  44 SW15      29.84F
CHAMBERLAIN    SUNNY     89  60  36 W14G22    29.89F
MITCHELL       SUNNY     87  60  40 SW14G25   29.88F
YANKTON        MOSUNNY   84  59  42 SW14      29.90F
$$

ABBREVIATIONS USED IN REMARKS
   TC - TEMPERATURE IN CELSIUS
  WCI - WIND CHILL INDEX
   HX - HEAT INDEX
  VSB - VISIBILITY




USA.gov is the U.S. government's official web portal to all federal, state and local government web resources and services.